Cairo, IL

8:59 PM CDT on March 28, 2017 (GMT -0500)
Cairo Regional

Weather History for KCIR - February, 2012

Change the Weather History Date:

Saturday, February 11, 2012

  Actual Average Record
Temperature  
Mean Temperature 28 °F -  
Max Temperature 32 °F 45 °F 70 °F (2017)
Min Temperature 23 °F 29 °F 1 °F (2011)
Degree Days  
Heating Degree Days 38    
Moisture  
Dew Point 12 °F    
Average Humidity 53    
Maximum Humidity 80    
Minimum Humidity 32    
Precipitation  
Precipitation 0.00 in - - ()
Sea Level Pressure  
Sea Level Pressure 30.43 in    
Wind  
Wind Speed 16 mph (NNW)    
Max Wind Speed 24 mph    
Max Gust Speed 32 mph    
Visibility 10 miles    
Events Snow    
Averages and records for this station are not official NWS values.
T = Trace of Precipitation, MM = Missing Value Source: NWS Daily Summary

Daily Weather History Graph

Daily Weather History Graph

Search for Another Location

Airport or City:

Trip Planner

Search our weather history database for the weather conditions in past years. The results will help you decide how hot, cold, wet, or windy it might be!

Date:

Astronomy

Feb. 11, 2012 Rise Set
Actual Time 6:50 AM CST 5:32 PM CST
Civil Twilight 6:23 AM CST 5:59 PM CST
Nautical Twilight 5:53 AM CST 6:29 PM CST
Astronomical Twilight 5:22 AM CST 6:59 PM CST
Moon 10:11 PM CST (2/11) 8:40 AM CST (2/11)
Length of Visible Light 11h 35m
Length of Day
10h 41m
Waning Gibbous, 82% of the Moon is Illuminated
Feb 11
Waning Gibbous
Feb 14
Last Quarter
Feb 21
New
Feb 29
First Quarter
Mar 8
Full

Hourly Weather History & Observations

Time (CST) Temp. Windchill Dew Point Humidity Pressure Visibility Wind Dir Wind Speed Gust Speed Precip Events Conditions
12:15 AM 28.4 °F 17.5 °F 19.4 °F 69% 30.21 in 10.0 mi NNW 13.8 mph - N/A   Overcast
12:35 AM 28.4 °F 15.4 °F 19.4 °F 69% 30.21 in 10.0 mi NNW 19.6 mph 25.3 mph N/A   Overcast
12:55 AM 28.4 °F 14.1 °F 17.6 °F 64% 30.22 in 10.0 mi NNW 24.2 mph 28.8 mph N/A   Overcast
1:15 AM 28.4 °F 16.2 °F 15.8 °F 59% 30.23 in 10.0 mi NNW 17.3 mph 27.6 mph N/A   Mostly Cloudy
1:35 AM 26.6 °F 14.7 °F 15.8 °F 64% 30.24 in 10.0 mi NNW 15.0 mph 26.5 mph N/A   Mostly Cloudy
1:55 AM 26.6 °F 13.8 °F 17.6 °F 69% 30.25 in 10.0 mi NNW 17.3 mph 23.0 mph N/A   Mostly Cloudy
2:15 AM 26.6 °F 14.7 °F 17.6 °F 69% 30.27 in 10.0 mi NNW 15.0 mph - N/A Snow Light Snow
2:35 AM 26.6 °F 14.3 °F 15.8 °F 64% 30.28 in 10.0 mi NW 16.1 mph 21.9 mph N/A Snow Light Snow
2:55 AM 26.6 °F 13.8 °F 15.8 °F 64% 30.29 in 10.0 mi NW 17.3 mph 21.9 mph N/A Snow Light Snow
3:15 AM 26.6 °F 14.7 °F 17.6 °F 69% 30.30 in 7.0 mi NNW 15.0 mph 26.5 mph N/A Snow Light Snow
3:35 AM 26.6 °F 15.2 °F 17.6 °F 69% 30.31 in 7.0 mi NW 13.8 mph - N/A Snow Light Snow
3:55 AM 26.6 °F 17.5 °F 17.6 °F 69% 30.32 in 10.0 mi NNW 9.2 mph 19.6 mph N/A Snow Light Snow
4:15 AM 24.8 °F 12.4 °F 15.8 °F 69% 30.33 in 7.0 mi NW 15.0 mph 23.0 mph N/A Snow Light Snow
4:35 AM 24.8 °F 12.9 °F 15.8 °F 69% 30.35 in 10.0 mi NW 13.8 mph 20.7 mph N/A Snow Light Snow
4:55 AM 24.8 °F 13.4 °F 15.8 °F 69% 30.36 in 10.0 mi NW 12.7 mph - N/A   Overcast
5:15 AM 24.8 °F 12.4 °F 15.8 °F 69% 30.37 in 10.0 mi NW 15.0 mph 20.7 mph N/A   Overcast
5:35 AM 24.8 °F 14.6 °F 15.8 °F 69% 30.38 in 10.0 mi NW 10.4 mph - N/A   Overcast
5:55 AM 24.8 °F 12.9 °F 15.8 °F 69% 30.39 in 10.0 mi NW 13.8 mph 19.6 mph N/A Snow Light Snow
6:15 AM 24.8 °F 14.0 °F 15.8 °F 69% 30.40 in 10.0 mi NW 11.5 mph 17.3 mph N/A   Overcast
6:35 AM 24.8 °F 11.9 °F 17.6 °F 74% 30.41 in 3.0 mi NW 16.1 mph 25.3 mph N/A Snow Light Snow
6:55 AM 23.0 °F 10.6 °F 17.6 °F 80% 30.42 in 3.0 mi North 13.8 mph 23.0 mph N/A Snow Light Snow
7:15 AM 23.0 °F 9.6 °F 15.8 °F 74% 30.43 in 10.0 mi NNW 16.1 mph 19.6 mph N/A   Mostly Cloudy
7:35 AM 23.0 °F 7.6 °F 14.0 °F 68% 30.44 in 10.0 mi North 21.9 mph 28.8 mph N/A   Scattered Clouds
7:55 AM 23.0 °F 8.7 °F 12.2 °F 63% 30.46 in 10.0 mi NNW 18.4 mph - N/A   Scattered Clouds
8:15 AM 24.8 °F 10.3 °F 12.2 °F 59% 30.46 in 10.0 mi NNW 20.7 mph 28.8 mph N/A   Clear
8:35 AM 24.8 °F 11.9 °F 12.2 °F 59% 30.46 in 10.0 mi North 16.1 mph 28.8 mph N/A   Scattered Clouds
8:55 AM 24.8 °F 11.9 °F 10.4 °F 54% 30.46 in 10.0 mi NNW 16.1 mph 27.6 mph N/A   Scattered Clouds
9:15 AM 24.8 °F 10.7 °F 8.6 °F 50% 30.47 in 10.0 mi NNW 19.6 mph 27.6 mph N/A   Clear
9:35 AM 26.6 °F 13.8 °F 8.6 °F 47% 30.48 in 10.0 mi NNW 17.3 mph - N/A   Clear
9:55 AM 26.6 °F 13.4 °F 8.6 °F 47% 30.49 in 10.0 mi NW 18.4 mph - N/A   Clear
10:15 AM 26.6 °F 14.3 °F 10.4 °F 51% 30.49 in 10.0 mi NNW 16.1 mph 24.2 mph N/A   Clear
10:35 AM 26.6 °F 12.7 °F 10.4 °F 51% 30.50 in 10.0 mi NW 20.7 mph 25.3 mph N/A   Clear
10:55 AM 28.4 °F 15.8 °F 10.4 °F 47% 30.51 in 10.0 mi NW 18.4 mph 25.3 mph N/A   Clear
11:15 AM 28.4 °F 16.2 °F 10.4 °F 47% 30.50 in 10.0 mi NW 17.3 mph 26.5 mph N/A   Clear
11:35 AM 28.4 °F 16.2 °F 10.4 °F 47% 30.50 in 10.0 mi NW 17.3 mph 26.5 mph N/A   Clear
11:55 AM 30.2 °F 18.9 °F 12.2 °F 47% 30.49 in 10.0 mi NW 16.1 mph 24.2 mph N/A   Clear
12:15 PM 30.2 °F 18.5 °F 10.4 °F 44% 30.49 in 10.0 mi NW 17.3 mph 25.3 mph N/A   Clear
12:35 PM 30.2 °F 17.4 °F 8.6 °F 40% 30.48 in 10.0 mi NW 20.7 mph 26.5 mph N/A   Clear
12:55 PM 30.2 °F 17.8 °F 8.6 °F 40% 30.49 in 10.0 mi NNW 19.6 mph 32.2 mph N/A   Clear
1:15 PM 30.2 °F 17.1 °F 10.4 °F 44% 30.48 in 10.0 mi NNW 21.9 mph 25.3 mph N/A   Clear
1:35 PM 30.2 °F 17.4 °F 8.6 °F 40% 30.48 in 10.0 mi NNW 20.7 mph 29.9 mph N/A   Clear
1:55 PM 32.0 °F 20.1 °F 8.6 °F 38% 30.49 in 10.0 mi NNW 19.6 mph 29.9 mph N/A   Clear
2:15 PM 32.0 °F 19.8 °F 10.4 °F 41% 30.49 in 10.0 mi NNW 20.7 mph 29.9 mph N/A   Clear
2:35 PM 32.0 °F 21.2 °F 8.6 °F 38% 30.49 in 10.0 mi NW 16.1 mph 21.9 mph N/A   Clear
2:55 PM 32.0 °F 21.2 °F 8.6 °F 38% 30.49 in 10.0 mi NW 16.1 mph 23.0 mph N/A   Clear
3:15 PM 32.0 °F 20.8 °F 6.8 °F 35% 30.49 in 10.0 mi NNW 17.3 mph 24.2 mph N/A   Clear
3:35 PM 32.0 °F 20.8 °F 8.6 °F 38% 30.49 in 10.0 mi North 17.3 mph - N/A   Clear
3:55 PM 32.0 °F 21.6 °F 6.8 °F 35% 30.49 in 10.0 mi NNW 15.0 mph - N/A   Clear
4:15 PM 32.0 °F 23.0 °F 6.8 °F 35% 30.50 in 10.0 mi NNW 11.5 mph 18.4 mph N/A   Clear
4:35 PM 32.0 °F 21.6 °F 5.0 °F 32% 30.50 in 10.0 mi NNW 15.0 mph - N/A   Clear
4:55 PM 30.2 °F 19.8 °F 5.0 °F 34% 30.51 in 10.0 mi NNW 13.8 mph 21.9 mph N/A   Clear
5:15 PM 30.2 °F 20.2 °F 6.8 °F 37% 30.52 in 10.0 mi NW 12.7 mph 18.4 mph N/A   Clear
5:35 PM 28.4 °F 19.1 °F 5.0 °F 37% 30.52 in 10.0 mi NNW 10.4 mph - N/A   Clear
5:55 PM 28.4 °F 19.1 °F 6.8 °F 40% 30.52 in 10.0 mi NNW 10.4 mph - N/A   Clear
6:15 PM 28.4 °F 20.4 °F 8.6 °F 43% 30.52 in 10.0 mi NNW 8.1 mph - N/A   Clear
6:35 PM 26.6 °F 21.2 °F 8.6 °F 47% 30.52 in 10.0 mi NNW 4.6 mph - N/A   Clear
6:55 PM 28.4 °F 18.5 °F 8.6 °F 43% 30.53 in 10.0 mi NW 11.5 mph - N/A   Clear
7:15 PM 26.6 °F 18.2 °F 8.6 °F 47% 30.53 in 10.0 mi NW 8.1 mph - N/A   Clear
7:35 PM 26.6 °F 19.1 °F 8.6 °F 47% 30.53 in 10.0 mi NW 6.9 mph - N/A   Clear
7:55 PM 26.6 °F 19.1 °F 8.6 °F 47% 30.53 in 10.0 mi NW 6.9 mph - N/A   Clear
8:15 PM 26.6 °F 19.1 °F 8.6 °F 47% 30.53 in 10.0 mi NW 6.9 mph - N/A   Clear
8:35 PM 26.6 °F 21.2 °F 8.6 °F 47% 30.53 in 10.0 mi WNW 4.6 mph - N/A   Clear
8:55 PM 26.6 °F 19.1 °F 8.6 °F 47% 30.53 in 10.0 mi NW 6.9 mph - N/A   Clear
9:15 PM 26.6 °F 18.2 °F 8.6 °F 47% 30.53 in 10.0 mi NW 8.1 mph - N/A   Clear
9:35 PM 26.6 °F 18.2 °F 6.8 °F 43% 30.54 in 10.0 mi NW 8.1 mph - N/A   Clear
9:55 PM 26.6 °F 16.2 °F 6.8 °F 43% 30.53 in 10.0 mi NNW 11.5 mph - N/A   Clear
10:15 PM 26.6 °F 19.1 °F 6.8 °F 43% 30.54 in 10.0 mi NW 6.9 mph - N/A   Clear
10:35 PM 26.6 °F 17.5 °F 6.8 °F 43% 30.54 in 10.0 mi NW 9.2 mph - N/A   Clear
10:55 PM 24.8 °F 14.6 °F 6.8 °F 46% 30.54 in 10.0 mi NW 10.4 mph - N/A   Clear
11:15 PM 24.8 °F 16.1 °F 6.8 °F 46% 30.54 in 10.0 mi NW 8.1 mph - N/A   Clear
11:35 PM 24.8 °F 16.1 °F 6.8 °F 46% 30.53 in 10.0 mi NNW 8.1 mph - N/A   Clear
11:55 PM 24.8 °F 16.9 °F 6.8 °F 46% 30.53 in 10.0 mi NNW 6.9 mph - N/A   Clear